Hourly Weather Kladniv

Today, 29 July, Thursday

Time Temperature Precipitation Wind Pressure Humidity
00:00 +21°C° 0 mm 2 mps 741 mmHg 80%
01:00 +21°C° 0 mm 2 mps 741 mmHg 81%
02:00 +20°C° 0 mm 2 mps 741 mmHg 83%
03:00 +20°C° 0.1 mm 2 mps 741 mmHg 85%
04:00 +20°C° 0.1 mm 2 mps 741 mmHg 88%
05:00 +20°C° 0.1 mm 3 mps 741 mmHg 91%
06:00 +21°C° 0.2 mm 3 mps 741 mmHg 89%
07:00 +21°C° 0.2 mm 4 mps 741 mmHg 88%
08:00 +22°C° 0.2 mm 4 mps 742 mmHg 87%
09:00 +23°C° 0 mm 4 mps 742 mmHg 80%
10:00 +25°C° 0 mm 4 mps 742 mmHg 74%
11:00 +26°C° 0 mm 4 mps 742 mmHg 67%
12:00 +27°C° 0.3 mm 5 mps 742 mmHg 63%
13:00 +28°C° 0.3 mm 5 mps 742 mmHg 59%
14:00 +28°C° 0.3 mm 5 mps 742 mmHg 55%
15:00 +28°C° 0 mm 5 mps 742 mmHg 52%
16:00 +29°C° 0 mm 5 mps 742 mmHg 48%
17:00 +29°C° 0 mm 5 mps 742 mmHg 45%
18:00 +27°C° 0 mm 4 mps 742 mmHg 51%
19:00 +25°C° 0 mm 3 mps 742 mmHg 56%
20:00 +23°C° 0 mm 2 mps 742 mmHg 62%
21:00 +23°C° 0 mm 2 mps 742 mmHg 61%
22:00 +23°C° 0 mm 2 mps 743 mmHg 61%
23:00 +23°C° 0 mm 1 mps 743 mmHg 60%

Tomorrow, 30 July, Friday

Time Temperature Precipitation Wind Pressure Humidity
00:00 +23°C° 0 mm 2 mps 743 mmHg 61%
01:00 +21°C° 0 mm 2 mps 743 mmHg 63%
02:00 +21°C° 0 mm 2 mps 743 mmHg 64%
03:00 +20°C° 0 mm 2 mps 743 mmHg 69%
04:00 +19°C° 0 mm 2 mps 743 mmHg 75%
05:00 +18°C° 0 mm 2 mps 743 mmHg 80%
06:00 +19°C° 0 mm 2 mps 743 mmHg 74%
07:00 +21°C° 0 mm 3 mps 743 mmHg 68%
08:00 +24°C° 0 mm 3 mps 743 mmHg 62%
09:00 +25°C° 0 mm 3 mps 743 mmHg 56%
10:00 +26°C° 0 mm 4 mps 743 mmHg 50%
11:00 +28°C° 0 mm 4 mps 743 mmHg 43%
12:00 +29°C° 0 mm 5 mps 743 mmHg 41%
13:00 +29°C° 0 mm 5 mps 742 mmHg 39%
14:00 +30°C° 0 mm 5 mps 742 mmHg 37%
15:00 +30°C° 0 mm 5 mps 742 mmHg 38%
16:00 +30°C° 0 mm 5 mps 741 mmHg 38%
17:00 +30°C° 0 mm 4 mps 741 mmHg 39%
18:00 +28°C° 0 mm 3 mps 741 mmHg 44%
19:00 +27°C° 0 mm 2 mps 741 mmHg 50%
20:00 +25°C° 0 mm 1 mps 741 mmHg 55%
21:00 +24°C° 0 mm 2 mps 741 mmHg 61%
22:00 +23°C° 0 mm 2 mps 741 mmHg 67%
23:00 +20°C° 0 mm 2 mps 741 mmHg 74%

Day after tomorrow, 31 July, Saturday

Time Temperature Precipitation Wind Pressure Humidity
00:00 +20°C° 0 mm 2 mps 741 mmHg 77%
01:00 +19°C° 0 mm 2 mps 741 mmHg 81%
02:00 +18°C° 0 mm 2 mps 741 mmHg 85%
03:00 +19°C° 0 mm 1 mps 741 mmHg 86%
04:00 +19°C° 0 mm 1 mps 741 mmHg 87%
05:00 +19°C° 0 mm 1 mps 741 mmHg 88%
06:00 +21°C° 0 mm 1 mps 741 mmHg 81%
07:00 +23°C° 0 mm 1 mps 741 mmHg 74%
08:00 +25°C° 0 mm 1 mps 741 mmHg 67%
09:00 +27°C° 0 mm 1 mps 741 mmHg 60%
10:00 +28°C° 0 mm 2 mps 741 mmHg 54%
11:00 +30°C° 0 mm 2 mps 741 mmHg 47%
12:00 +31°C° 0 mm 2 mps 740 mmHg 44%
13:00 +32°C° 0 mm 2 mps 740 mmHg 40%
14:00 +34°C° 0 mm 3 mps 740 mmHg 37%
15:00 +33°C° 0.1 mm 3 mps 739 mmHg 43%
16:00 +30°C° 0.1 mm 4 mps 739 mmHg 49%
17:00 +29°C° 0.1 mm 4 mps 738 mmHg 55%
18:00 +26°C° 4.1 mm 5 mps 738 mmHg 68%
19:00 +23°C° 4.1 mm 5 mps 739 mmHg 81%
20:00 +20°C° 4.1 mm 5 mps 739 mmHg 94%
21:00 +20°C° 1.6 mm 4 mps 739 mmHg 95%
22:00 +19°C° 1.6 mm 3 mps 740 mmHg 95%
23:00 +19°C° 1.6 mm 2 mps 740 mmHg 95%

1 August, Sunday

Time Temperature Precipitation Wind Pressure Humidity
00:00 +19°C° 0 mm 2 mps 740 mmHg 96%
01:00 +18°C° 0 mm 3 mps 741 mmHg 97%
02:00 +18°C° 0 mm 3 mps 741 mmHg 98%
03:00 +17°C° 0 mm 3 mps 741 mmHg 97%
04:00 +17°C° 0 mm 3 mps 741 mmHg 97%
05:00 +17°C° 0 mm 2 mps 741 mmHg 97%
06:00 +18°C° 0 mm 2 mps 741 mmHg 92%
07:00 +19°C° 0 mm 2 mps 741 mmHg 87%
08:00 +21°C° 0 mm 2 mps 741 mmHg 82%
09:00 +24°C° 0 mm 2 mps 741 mmHg 73%
10:00 +25°C° 0 mm 2 mps 741 mmHg 64%
11:00 +27°C° 0 mm 2 mps 741 mmHg 54%
12:00 +28°C° 0 mm 2 mps 741 mmHg 51%
13:00 +29°C° 0 mm 3 mps 741 mmHg 47%
14:00 +30°C° 0 mm 3 mps 740 mmHg 43%
15:00 +30°C° 0 mm 3 mps 739 mmHg 45%
16:00 +30°C° 0 mm 3 mps 739 mmHg 47%
17:00 +30°C° 0 mm 3 mps 738 mmHg 48%
18:00 +26°C° 10.8 mm 4 mps 738 mmHg 64%
19:00 +22°C° 10.8 mm 5 mps 739 mmHg 79%
20:00 +17°C° 10.8 mm 6 mps 739 mmHg 94%
21:00 +17°C° 4.1 mm 5 mps 739 mmHg 94%
22:00 +18°C° 4.1 mm 3 mps 739 mmHg 94%
23:00 +19°C° 4.1 mm 1 mps 739 mmHg 94%

2 August, Monday

Time Temperature Precipitation Wind Pressure Humidity
00:00 +19°C° 0 mm 1 mps 739 mmHg 95%
01:00 +19°C° 0 mm 1 mps 739 mmHg 95%
02:00 +19°C° 0 mm 1 mps 738 mmHg 96%
03:00 +17°C° 0 mm 2 mps 739 mmHg 96%
04:00 +17°C° 0 mm 2 mps 739 mmHg 97%
05:00 +17°C° 0 mm 3 mps 739 mmHg 97%
06:00 +17°C° 0.1 mm 3 mps 739 mmHg 96%
07:00 +17°C° 0.1 mm 3 mps 740 mmHg 94%
08:00 +17°C° 0.1 mm 4 mps 740 mmHg 93%
09:00 +17°C° 0.3 mm 4 mps 741 mmHg 93%
10:00 +17°C° 0.3 mm 4 mps 741 mmHg 94%
11:00 +15°C° 0.3 mm 4 mps 742 mmHg 94%
12:00 +17°C° 0.2 mm 4 mps 742 mmHg 89%
13:00 +18°C° 0.2 mm 4 mps 742 mmHg 84%
14:00 +19°C° 0.2 mm 4 mps 743 mmHg 78%
15:00 +20°C° 0.2 mm 4 mps 743 mmHg 75%
16:00 +20°C° 0.2 mm 4 mps 743 mmHg 71%
17:00 +21°C° 0.2 mm 4 mps 743 mmHg 67%
18:00 +20°C° 0 mm 4 mps 743 mmHg 71%
19:00 +19°C° 0 mm 3 mps 743 mmHg 75%
20:00 +18°C° 0 mm 2 mps 743 mmHg 79%
21:00 +17°C° 0 mm 2 mps 744 mmHg 80%
22:00 +16°C° 0 mm 2 mps 744 mmHg 82%
23:00 +16°C° 0 mm 2 mps 745 mmHg 83%

3 August, Tuesday

Time Temperature Precipitation Wind Pressure Humidity
00:00 +16°C° 0 mm 2 mps 745 mmHg 81%
01:00 +16°C° 0 mm 2 mps 745 mmHg 80%
02:00 +16°C° 0 mm 2 mps 745 mmHg 78%
03:00 +16°C° 0 mm 2 mps 745 mmHg 77%
04:00 +16°C° 0 mm 3 mps 745 mmHg 75%
05:00 +17°C° 0 mm 3 mps 745 mmHg 74%
06:00 +17°C° 0 mm 3 mps 745 mmHg 74%
07:00 +18°C° 0 mm 3 mps 746 mmHg 74%
08:00 +19°C° 0 mm 3 mps 746 mmHg 74%
09:00 +20°C° 0.1 mm 4 mps 746 mmHg 68%
10:00 +22°C° 0.1 mm 4 mps 746 mmHg 63%
11:00 +25°C° 0.1 mm 5 mps 746 mmHg 57%
12:00 +25°C° 0.4 mm 5 mps 746 mmHg 56%
13:00 +26°C° 0.4 mm 4 mps 746 mmHg 54%
14:00 +26°C° 0.4 mm 4 mps 746 mmHg 52%
15:00 +25°C° 0 mm 4 mps 746 mmHg 56%
16:00 +25°C° 0 mm 3 mps 746 mmHg 60%
17:00 +24°C° 0 mm 2 mps 745 mmHg 64%
18:00 +23°C° 0 mm 2 mps 745 mmHg 68%
19:00 +21°C° 0 mm 1 mps 745 mmHg 72%
20:00 +20°C° 0 mm 1 mps 746 mmHg 76%
21:00 +20°C° 0.1 mm 1 mps 746 mmHg 78%
22:00 +18°C° 0.1 mm 2 mps 746 mmHg 80%
23:00 +17°C° 0.1 mm 3 mps 746 mmHg 83%
Show more